Time,TemperatureF,DewpointF,PressureIn,WindDirection,WindDirectionDegrees,WindSpeedMPH,WindSpeedGustMPH,Humidity,HourlyPrecipIn,Conditions,Clouds,dailyrainin,SolarRadiationWatts/m^2,SoftwareType,DateUTC
2013-06-20 18:45:00,82.7,65.4,30.00,SSE,163,0.0,2.0,56,0.00,,,0.00,246,Wunderground v.1.15,2013-06-20 23:45:00,
2013-06-20 18:50:00,82.5,65.7,30.00,SSE,165,3.0,5.0,57,0.00,,,0.00,227,Wunderground v.1.15,2013-06-20 23:50:00,
2013-06-20 18:55:00,82.3,65.0,30.00,South,171,2.0,5.0,56,0.00,,,0.00,214,Wunderground v.1.15,2013-06-20 23:55:00,
2013-06-20 19:00:00,82.3,66.0,30.00,SW,231,0.0,1.0,58,0.00,,,0.00,190,Wunderground v.1.15,2013-06-21 00:00:00,
2013-06-20 19:05:00,82.1,66.4,30.00,SSE,165,3.0,3.0,59,0.00,,,0.00,169,Wunderground v.1.15,2013-06-21 00:05:00,
2013-06-20 19:10:00,81.9,65.7,30.00,SSE,153,0.0,2.0,58,0.00,,,0.00,158,Wunderground v.1.15,2013-06-21 00:10:00,
2013-06-20 19:15:00,81.8,65.6,30.00,SSE,166,1.0,5.0,58,0.00,,,0.00,137,Wunderground v.1.15,2013-06-21 00:15:00,
2013-06-20 19:20:00,81.7,65.5,30.00,SSE,166,1.0,3.0,58,0.00,,,0.00,116,Wunderground v.1.15,2013-06-21 00:20:00,
2013-06-20 19:25:00,81.5,65.8,30.00,SSE,166,0.0,3.0,59,0.00,,,0.00,95,Wunderground v.1.15,2013-06-21 00:25:00,
2013-06-20 19:30:00,81.3,65.6,30.00,South,171,0.0,1.0,59,0.00,,,0.00,74,Wunderground v.1.15,2013-06-21 00:30:00,
2013-06-20 19:35:00,81.1,65.9,30.00,South,171,0.0,2.0,60,0.00,,,0.00,62,Wunderground v.1.15,2013-06-21 00:35:00,
2013-06-20 19:40:00,80.8,65.6,30.00,South,171,3.0,5.0,60,0.00,,,0.00,42,Wunderground v.1.15,2013-06-21 00:40:00,
2013-06-20 19:45:00,80.6,65.4,30.00,South,171,2.0,5.0,60,0.00,,,0.00,33,Wunderground v.1.15,2013-06-21 00:45:00,
2013-06-20 19:50:00,80.4,64.8,30.00,SSE,149,2.0,4.0,59,0.00,,,0.00,26,Wunderground v.1.15,2013-06-21 00:50:00,
2013-06-20 19:55:00,80.2,64.6,30.00,South,173,2.0,5.0,59,0.00,,,0.00,23,Wunderground v.1.15,2013-06-21 00:55:00,
2013-06-20 20:00:00,80.1,64.0,30.00,SSE,161,2.0,5.0,58,0.00,,,0.00,21,Wunderground v.1.15,2013-06-21 01:00:00,
2013-06-20 20:05:00,80.2,64.1,29.99,SSE,155,4.0,6.0,58,0.00,,,0.00,19,Wunderground v.1.15,2013-06-21 01:05:00,
2013-06-20 20:10:00,80.3,64.2,30.00,SSE,163,3.0,4.0,58,0.00,,,0.00,16,Wunderground v.1.15,2013-06-21 01:10:00,
2013-06-20 20:15:00,80.2,64.6,30.00,SSE,157,5.0,5.0,59,0.00,,,0.00,12,Wunderground v.1.15,2013-06-21 01:15:00,
2013-06-20 20:20:00,80.0,64.4,30.00,SSE,165,4.0,5.0,59,0.00,,,0.00,11,Wunderground v.1.15,2013-06-21 01:20:00,
2013-06-20 20:25:00,79.9,64.3,30.00,SSE,157,3.0,5.0,59,0.00,,,0.00,9,Wunderground v.1.15,2013-06-21 01:25:00,
2013-06-20 20:30:00,79.7,64.1,30.00,SSE,157,2.0,4.0,59,0.00,,,0.00,7,Wunderground v.1.15,2013-06-21 01:30:00,
2013-06-20 20:36:00,79.6,64.0,30.00,SSE,157,2.0,6.0,59,0.00,,,0.00,0,Wunderground v.1.15,2013-06-21 01:36:00,
2013-06-20 20:41:00,79.4,64.3,30.00,South,171,2.0,3.0,60,0.00,,,0.00,0,Wunderground v.1.15,2013-06-21 01:41:00,
2013-06-20 20:46:00,79.1,64.0,30.00,South,171,1.0,3.0,60,0.00,,,0.00,0,Wunderground v.1.15,2013-06-21 01:46:00,
2013-06-20 20:51:00,79.0,63.9,30.00,SE,144,2.0,4.0,60,0.00,,,0.00,0,Wunderground v.1.15,2013-06-21 01:51:00,
2013-06-20 20:56:00,78.9,63.8,30.01,SSE,165,2.0,6.0,60,0.00,,,0.00,0,Wunderground v.1.15,2013-06-21 01:56:00,
2013-06-20 21:01:00,78.7,64.1,30.01,SSE,165,3.0,3.0,61,0.00,,,0.00,0,Wunderground v.1.15,2013-06-21 02:01:00,
2013-06-20 21:06:00,78.6,64.0,30.01,SSE,165,3.0,4.0,61,0.00,,,0.00,0,Wunderground v.1.15,2013-06-21 02:06:00,
2013-06-20 21:11:00,78.5,63.9,30.01,SSE,165,1.0,3.0,61,0.00,,,0.00,0,Wunderground v.1.15,2013-06-21 02:11:00,
2013-06-20 21:16:00,78.4,63.8,30.01,SSE,165,1.0,3.0,61,0.00,,,0.00,0,Wunderground v.1.15,2013-06-21 02:16:00,
2013-06-20 21:21:00,78.3,63.7,30.02,ESE,121,5.0,5.0,61,0.00,,,0.00,0,Wunderground v.1.15,2013-06-21 02:21:00,
2013-06-20 21:26:00,78.0,63.9,30.02,ESE,119,8.0,9.0,62,0.00,,,0.00,0,Wunderground v.1.15,2013-06-21 02:26:00,
2013-06-20 21:31:00,78.0,64.4,30.02,ESE,120,4.0,7.0,63,0.00,,,0.00,0,Wunderground v.1.15,2013-06-21 02:31:00,
2013-06-20 21:36:00,77.7,64.5,30.02,SSE,147,8.0,10.0,64,0.00,,,0.00,0,Wunderground v.1.15,2013-06-21 02:36:00,
2013-06-20 21:41:00,77.5,65.2,30.03,SE,140,4.0,8.0,66,0.00,,,0.00,0,Wunderground v.1.15,2013-06-21 02:41:00,
2013-06-20 21:46:00,77.3,65.5,30.03,SE,126,9.0,10.0,67,0.00,,,0.00,0,Wunderground v.1.15,2013-06-21 02:46:00,
2013-06-20 21:51:00,77.1,65.3,30.03,SE,130,5.0,8.0,67,0.00,,,0.00,0,Wunderground v.1.15,2013-06-21 02:51:00,
2013-06-20 21:56:00,76.8,65.4,30.03,SE,138,4.0,8.0,68,0.00,,,0.00,0,Wunderground v.1.15,2013-06-21 02:56:00,
2013-06-20 22:01:00,76.5,65.1,30.03,ESE,123,10.0,12.0,68,0.00,,,0.00,0,Wunderground v.1.15,2013-06-21 03:01:00,
2013-06-20 22:06:00,76.3,65.0,30.03,SSE,165,7.0,12.0,68,0.00,,,0.00,0,Wunderground v.1.15,2013-06-21 03:06:00,
2013-06-20 22:11:00,76.1,64.8,30.03,SE,133,9.0,9.0,68,0.00,,,0.00,0,Wunderground v.1.15,2013-06-21 03:11:00,
2013-06-20 22:16:00,76.0,64.7,30.03,SE,138,5.0,12.0,68,0.00,,,0.00,0,Wunderground v.1.15,2013-06-21 03:16:00,
2013-06-20 22:21:00,75.8,64.5,30.03,SE,144,8.0,9.0,68,0.00,,,0.00,0,Wunderground v.1.15,2013-06-21 03:21:00,
2013-06-20 22:26:00,75.7,64.4,30.03,SE,143,4.0,11.0,68,0.00,,,0.00,0,Wunderground v.1.15,2013-06-21 03:26:00,
2013-06-20 22:31:00,75.5,64.6,30.03,SE,144,5.0,8.0,69,0.00,,,0.00,0,Wunderground v.1.15,2013-06-21 03:31:00,
2013-06-20 22:36:00,75.4,64.5,30.03,SE,128,9.0,10.0,69,0.00,,,0.00,0,Wunderground v.1.15,2013-06-21 03:36:00,
2013-06-20 22:41:00,75.3,64.4,30.03,SE,137,5.0,12.0,69,0.00,,,0.00,0,Wunderground v.1.15,2013-06-21 03:41:00,
2013-06-20 22:46:00,75.1,64.2,30.03,South,171,3.0,12.0,69,0.00,,,0.00,0,Wunderground v.1.15,2013-06-21 03:46:00,
2013-06-20 22:51:00,75.0,64.1,30.03,SSE,147,5.0,7.0,69,0.00,,,0.00,0,Wunderground v.1.15,2013-06-21 03:51:00,
2013-06-20 22:56:00,74.8,63.9,30.02,South,169,2.0,9.0,69,0.00,,,0.00,0,Wunderground v.1.15,2013-06-21 03:56:00,
2013-06-20 23:01:00,74.7,64.3,30.02,SSE,156,4.0,6.0,70,0.00,,,0.00,0,Wunderground v.1.15,2013-06-21 04:01:00,
2013-06-20 23:06:00,74.5,64.1,30.02,SE,141,9.0,12.0,70,0.00,,,0.00,0,Wunderground v.1.15,2013-06-21 04:06:00,
2013-06-20 23:11:00,74.4,64.0,30.03,SE,142,5.0,7.0,70,0.00,,,0.00,0,Wunderground v.1.15,2013-06-21 04:11:00,
2013-06-20 23:16:00,74.3,63.9,30.03,SSE,163,5.0,10.0,70,0.00,,,0.00,0,Wunderground v.1.15,2013-06-21 04:16:00,
2013-06-20 23:21:00,74.2,63.8,30.03,SSE,148,6.0,8.0,70,0.00,,,0.00,0,Wunderground v.1.15,2013-06-21 04:21:00,
2013-06-20 23:26:00,74.0,63.6,30.03,SSE,156,4.0,8.0,70,0.00,,,0.00,0,Wunderground v.1.15,2013-06-21 04:26:00,
2013-06-20 23:31:00,73.9,63.5,30.03,SSE,157,4.0,9.0,70,0.00,,,0.00,0,Wunderground v.1.15,2013-06-21 04:31:00,
2013-06-20 23:37:00,73.8,63.4,30.03,SSE,167,5.0,10.0,70,0.00,,,0.00,0,Wunderground v.1.15,2013-06-21 04:37:00,
2013-06-20 23:42:00,73.7,63.3,30.03,SSE,155,4.0,7.0,70,0.00,,,0.00,0,Wunderground v.1.15,2013-06-21 04:42:00,
2013-06-20 23:47:00,73.5,63.1,30.03,SW,225,5.0,7.0,70,0.00,,,0.00,0,Wunderground v.1.15,2013-06-21 04:47:00,
2013-06-20 23:52:00,73.4,63.0,30.03,SSE,160,5.0,6.0,70,0.00,,,0.00,0,Wunderground v.1.15,2013-06-21 04:52:00,
2013-06-20 23:57:00,73.3,63.3,30.03,SE,136,6.0,9.0,71,0.00,,,0.00,0,Wunderground v.1.15,2013-06-21 04:57:00,